Weather History for KGON - February, 2013

Change the Weather History Date:

Thursday, February 14, 2013

  Actual Average Record
Temperature  
Mean Temperature 32 °F -  
Max Temperature 39 °F 39 °F 55 °F (1990)
Min Temperature 24 °F 20 °F -11 °F (1979)
Degree Days  
Heating Degree Days 34    
Moisture  
Dew Point 29 °F    
Average Humidity 87    
Maximum Humidity 100    
Minimum Humidity 55    
Precipitation  
Precipitation 0.04 in - - ()
Sea Level Pressure  
Sea Level Pressure 29.84 in    
Wind  
Wind Speed 6 mph (NW)    
Max Wind Speed 12 mph    
Max Gust Speed -    
Visibility 6 miles    
Events Fog , Snow    
Averages and records for this station are not official NWS values.
T = Trace of Precipitation, MM = Missing Value Source: NWS Daily Summary

Daily Weather History Graph

Daily Weather History Graph

Search for Another Location

Airport or City:

Trip Planner

Search our weather history database for the weather conditions in past years. The results will help you decide how hot, cold, wet, or windy it might be!

Date:

Astronomy

Feb. 14, 2013 Rise Set
Actual Time 6:44 AM EST 5:21 PM EST
Civil Twilight 6:15 AM EST 5:49 PM EST
Nautical Twilight 5:43 AM EST 6:21 PM EST
Astronomical Twilight 5:11 AM EST 6:54 PM EST
Moon 8:40 AM EST (2/14) 10:25 PM EST (2/14)
Length of Visible Light 11h 33m
Length of Day
10h 37m
Waxing Crescent, 21% of the Moon is Illuminated
Feb 14
Waxing Crescent
Feb 17
First Quarter
Feb 25
Full
Mar 4
Last Quarter
Mar 11
New

Hourly Weather History & Observations

Time (EST) Temp. Windchill Dew Point Humidity Pressure Visibility Wind Dir Wind Speed Gust Speed Precip Events Conditions
12:09 AM 35.6 °F 30.7 °F 28.4 °F 75% 29.72 in 2.5 mi NE 5.8 mph - 0.00 in Snow Light Snow
12:21 AM 33.8 °F 25.8 °F 32.0 °F 93% 29.71 in 0.8 mi NE 10.4 mph - 0.00 in Snow Light Snow
12:37 AM 33.8 °F 28.6 °F 33.8 °F 100% 29.73 in 0.5 mi NNE 5.8 mph - 0.02 in Fog , Snow Snow
12:56 AM 32.0 °F 25.6 °F 32.0 °F 100% 29.72 in 0.5 mi North 6.9 mph - 0.04 in Fog , Snow Snow
1:21 AM 32.0 °F 25.6 °F 32.0 °F 100% 29.71 in 1.0 mi North 6.9 mph - 0.00 in Snow Light Snow
1:40 AM 32.0 °F 25.6 °F 32.0 °F 100% 29.72 in 0.8 mi North 6.9 mph - 0.00 in Snow Light Snow
1:47 AM 32.0 °F 26.4 °F 32.0 °F 100% 29.72 in 1.0 mi North 5.8 mph - 0.00 in Snow Light Snow
1:56 AM 32.0 °F 25.6 °F 32.0 °F 100% 29.72 in 1.0 mi North 6.9 mph - 0.00 in Snow Light Snow
2:02 AM 32.0 °F 24.8 °F 32.0 °F 100% 29.71 in 1.2 mi North 8.1 mph - 0.00 in Snow Light Snow
2:14 AM 32.0 °F 25.6 °F 32.0 °F 100% 29.71 in 2.0 mi North 6.9 mph - 0.00 in Snow Light Snow
2:26 AM 32.0 °F 26.4 °F 32.0 °F 100% 29.70 in 4.0 mi NNE 5.8 mph - 0.00 in Snow Light Snow
2:56 AM 32.0 °F 25.6 °F 30.9 °F 96% 29.71 in 7.0 mi North 6.9 mph - 0.00 in   Partly Cloudy
3:56 AM 28.9 °F 21.9 °F 28.0 °F 96% 29.74 in 7.0 mi NNW 6.9 mph - N/A   Clear
4:56 AM 28.9 °F 22.8 °F 28.0 °F 96% 29.78 in 6.0 mi NNW 5.8 mph - N/A   Mostly Cloudy
5:56 AM 26.1 °F 21.9 °F 26.1 °F 100% 29.78 in 4.0 mi NNW 3.5 mph - N/A   Clear
6:04 AM 24.8 °F 20.5 °F 24.8 °F 100% 29.79 in 1.5 mi NNW 3.5 mph - N/A   Clear
6:16 AM 26.6 °F - 26.6 °F 100% 29.80 in 3.0 mi Calm Calm - N/A   Clear
6:56 AM 26.1 °F - 26.1 °F 100% 29.81 in 7.0 mi Calm Calm - N/A   Clear
7:43 AM 24.8 °F - 24.8 °F 100% 29.85 in 1.8 mi Calm Calm - N/A   Clear
7:56 AM 26.1 °F - 25.0 °F 96% 29.86 in 7.0 mi Calm Calm - N/A   Clear
8:04 AM 26.6 °F - 26.6 °F 100% 29.86 in 1.8 mi Calm Calm - N/A   Clear
8:10 AM 26.6 °F - 26.6 °F 100% 29.87 in 7.0 mi Calm Calm - N/A   Clear
8:56 AM 32.0 °F 26.4 °F 27.0 °F 82% 29.88 in 7.0 mi NNW 5.8 mph - N/A   Clear
9:56 AM 36.0 °F 31.1 °F 26.1 °F 67% 29.91 in 9.0 mi NNW 5.8 mph - N/A   Clear
10:56 AM 39.0 °F - 24.1 °F 55% 29.91 in 10.0 mi Calm Calm - N/A   Clear
11:56 AM 37.9 °F 32.7 °F 27.0 °F 65% 29.92 in 10.0 mi SSW 6.9 mph - N/A   Clear
12:56 PM 37.9 °F 31.5 °F 30.0 °F 73% 29.91 in 10.0 mi SSW 9.2 mph - N/A   Clear
1:56 PM 39.0 °F 31.8 °F 27.0 °F 62% 29.92 in 10.0 mi SW 11.5 mph - N/A   Clear
2:56 PM 39.0 °F 32.3 °F 27.0 °F 62% 29.94 in 10.0 mi WSW 10.4 mph - N/A   Clear
3:56 PM 39.0 °F 32.3 °F 28.0 °F 65% 29.95 in 9.0 mi SW 10.4 mph - N/A   Clear
4:56 PM 37.9 °F 32.7 °F 26.1 °F 62% 29.96 in 9.0 mi WSW 6.9 mph - N/A   Clear
5:56 PM 37.9 °F 32.7 °F 27.0 °F 65% 29.99 in 10.0 mi WSW 6.9 mph - N/A   Clear
6:56 PM 37.0 °F 30.4 °F 32.0 °F 82% 29.98 in 9.0 mi SW 9.2 mph - N/A   Clear
7:56 PM 37.0 °F 29.8 °F 30.9 °F 79% 30.00 in 9.0 mi SW 10.4 mph - N/A   Clear
8:56 PM 36.0 °F 31.1 °F 30.9 °F 82% 30.01 in 9.0 mi SW 5.8 mph - N/A   Clear
9:56 PM 36.0 °F 31.1 °F 32.0 °F 86% 30.02 in 8.0 mi SW 5.8 mph - N/A   Clear
10:56 PM 36.0 °F 32.1 °F 33.1 °F 89% 30.01 in 7.0 mi SW 4.6 mph - N/A   Clear
11:56 PM 28.0 °F - 27.0 °F 96% 30.01 in 6.0 mi Calm Calm - N/A   Clear